#timestamp,LO_Frequency,Hit,StdDev 
1502823615.9,286046999.3,N,0.3
1502823635.7,286046996.5,Y,0.0
1502823655.5,286046999.3,P,0.2
1502823675.4,286046999.6,N,0.3
1502823695.2,286046999.3,N,0.2
1502823715.0,286046999.0,Y,0.0
1502823716.0,286046999.0,P,0.1
1502823735.8,286047001.1,P,0.9
1502823755.6,286046998.3,N,1.0
1502823775.5,286047001.1,N,1.1
1502823795.3,286046999.3,N,1.1
1502823815.1,286046999.0,N,1.0
1502823835.9,286046996.5,Y,0.0
1502823855.7,286046996.6,P,1.5
1502823875.6,286046999.6,N,1.4
1502823895.4,286046997.8,N,1.3
1502823915.2,286046997.0,N,1.3
1502823935.1,286047011.9,Y,0.0
1502823936.0,286046999.6,P,0.7
1502823955.8,286046998.2,N,0.7
1502823975.7,286046998.1,N,0.6
1502823995.5,286046998.8,N,0.6
1502824015.3,286047000.7,N,1.0
1502824035.2,286047001.1,N,1.2
1502824055.9,286047000.6,N,1.2
1502824075.7,286047000.6,N,1.2
1502824095.6,286047001.2,N,1.2
1502824115.4,286047000.7,N,1.2
1502824135.3,286047000.4,N,1.2
1502824155.1,286047000.6,N,1.1
1502824156.0,286047000.6,N,1.1
1502824175.8,286047000.5,N,1.1
1502824195.7,286047000.2,N,1.0
1502824215.5,286047002.1,N,1.1
1502824235.3,286047002.5,N,1.2
1502824255.2,286047004.4,Y,0.0
1502824275.0,286047001.6,P,0.7
1502824275.9,286047001.6,N,0.6
1502824295.8,286047004.2,P,1.4
1502824315.6,286047003.2,N,1.4
1502824335.4,286047003.7,N,1.4
1502824355.3,286047004.0,N,1.4
1502824375.1,286047004.2,N,1.4
1502824395.9,286047004.1,N,1.4
1502824415.7,286047004.3,Y,0.0
1502824435.5,286047000.5,P,1.2
1502824455.4,286046999.9,N,1.3
1502824475.2,286047000.0,N,1.3
1502824495.1,286047000.6,N,1.1
1502824496.0,286047000.6,N,1.0
1502824515.8,286046999.7,N,1.0
1502824535.6,286047002.8,N,1.2
1502824555.5,286047002.2,N,1.2
1502824575.3,286047002.0,N,1.2
1502824595.1,286047002.3,N,1.2
1502824615.9,286047002.3,N,1.2
1502824635.7,286047002.2,N,1.1
1502824655.6,286047002.2,N,1.1
1502824675.4,286047001.8,N,1.1
1502824695.2,286047004.1,Y,0.0
1502824715.1,286047002.2,P,0.4
1502824716.0,286047002.2,P,0.3
1502824735.8,286047002.0,P,0.3
1502824755.7,286047002.6,Y,0.0
1502824775.5,286047000.5,P,0.7
1502824795.3,286047001.2,N,0.6
1502824815.2,286047000.4,N,0.6
1502824835.9,286047000.0,N,0.7
1502824855.7,286046999.7,N,0.8
1502824875.6,286046999.8,N,0.8
1502824895.4,286047000.4,N,0.7
1502824915.2,286047000.4,N,0.7
1502824935.1,286046999.9,N,0.7
1502824936.0,286046999.9,N,0.6
1502824955.8,286047000.1,N,0.6
1502824975.7,286047002.1,Y,0.0
1502824995.5,286047002.0,P,0.8
1502825015.3,286047001.9,N,0.8
1502825035.2,286047002.2,N,0.7
1502825055.0,286047002.1,N,0.7
1502825055.9,286047002.1,Y,0.0
1502825075.8,286047000.7,P,0.5
1502825095.6,286047000.6,N,0.5
1502825115.4,286047000.3,N,0.5
1502825135.3,286046998.2,Y,0.0
1502825155.1,286046999.0,P,0.9
1502825175.9,286046998.3,N,1.1
1502825195.7,286046998.1,N,1.1
1502825215.5,286047001.2,N,1.3
1502825235.4,286047000.6,N,1.2
1502825255.2,286047001.0,N,1.2
1502825275.0,286047000.4,N,1.2
1502825275.9,286047000.4,N,1.1
1502825295.8,286047000.3,N,1.1
1502825315.6,286047000.5,N,1.0
1502825335.5,286047000.9,N,1.0
1502825355.3,286047001.0,N,1.0
1502825375.1,286046999.8,N,1.0
1502825395.9,286047000.4,N,0.9
1502825415.7,286047000.0,N,0.9
1502825435.5,286047002.7,N,1.1
1502825455.4,286047002.7,N,1.2
1502825475.2,286047002.4,N,1.2
1502825495.1,286046999.7,N,1.2
1502825496.0,286046999.7,N,1.2
1502825515.8,286047000.3,N,1.2
1502825535.6,286047000.2,N,1.1
1502825555.5,286047000.9,N,1.1
1502825575.3,286047000.2,N,1.1
1502825595.1,286046999.7,N,1.1
1502825615.9,286046999.7,N,1.1
1502825635.7,286047002.7,N,1.1
1502825655.6,286047001.9,N,1.1
1502825675.4,286047001.9,N,1.2
1502825695.2,286047002.5,N,1.2
1502825715.1,286047002.7,N,1.2
1502825716.0,286047002.7,N,1.2
1502825735.8,286047002.1,N,1.1
1502825755.7,286047001.5,N,1.1
1502825775.5,286047001.8,N,1.1
1502825795.3,286047002.0,N,1.1
1502825815.2,286047001.6,N,1.1
1502825835.9,286047002.4,N,1.1
1502825855.7,286047001.5,N,1.1
1502825875.6,286047002.3,N,1.1
1502825895.4,286047002.6,N,1.1
1502825915.3,286047002.3,N,1.1
1502825935.1,286047002.5,N,1.1
1502825936.0,286047002.5,N,1.1
1502825955.8,286047001.7,N,1.0
1502825975.7,286047001.9,N,1.0
1502825995.5,286047001.8,N,1.0
1502826015.3,286047002.1,N,1.0
1502826035.2,286047001.9,N,0.9
1502826055.0,286047004.4,Y,0.0
1502826055.9,286047004.4,P,1.4
1502826075.8,286046999.7,N,1.9
1502826095.6,286047002.5,N,1.7
1502826115.4,286046999.9,N,1.7
1502826135.3,286047000.4,N,1.7
1502826155.1,286047000.5,N,1.6
1502826175.9,286047000.2,N,1.5
1502826195.7,286047000.3,N,1.4
1502826215.5,286047002.8,N,1.5
1502826235.4,286047000.0,N,1.4
1502826255.2,286047002.6,N,1.4
1502826275.0,286047001.9,N,1.4
1502826275.9,286047001.9,N,1.4
1502826295.8,286047002.1,N,1.3
1502826315.6,286047001.8,N,1.3
1502826335.5,286047002.5,N,1.3
1502826355.3,286047002.8,N,1.3
1502826375.1,286047002.4,N,1.3
1502826395.9,286047002.1,N,1.2
1502826415.7,286047002.3,N,1.2
1502826435.5,286047001.6,N,1.2
1502826455.4,286047001.7,N,1.2
1502826475.2,286047003.5,Y,0.0
1502826495.1,286046999.7,P,1.0
1502826496.0,286046999.7,N,0.9
1502826515.8,286046999.9,N,0.8
1502826535.6,286047000.3,N,0.7
1502826555.5,286047000.0,N,0.7
1502826575.3,286047000.6,N,0.6
1502826595.1,286047000.5,N,0.6
1502826615.9,286047000.3,N,0.6
1502826635.7,286047000.0,N,0.5
1502826655.6,286047000.1,N,0.5
1502826675.4,286047000.3,N,0.5
1502826725.3,286047000.5,E,nan
1502826735.2,286047000.0,N,0.0
1502826755.0,286047001.0,P,0.5
1502826755.9,286047001.0,N,0.5
1502826775.8,286047000.6,N,0.4
1502826795.6,286046998.1,Y,0.0
1502826815.4,286046998.3,P,1.2
1502826835.3,286047001.2,N,1.3
1502826855.1,286047000.7,N,1.1
1502826875.9,286047001.0,N,1.1
1502826895.7,286046998.2,N,1.3
1502826915.5,286047000.8,N,1.2
1502826935.4,286046998.1,N,1.3
1502826955.2,286047000.9,N,1.3
1502826975.0,286047000.9,N,1.2
1502826976.0,286047000.9,N,1.2
1502826995.8,286046998.4,N,1.2
1502827015.6,286046998.3,N,1.3
1502827035.5,286047000.3,N,1.2
1502827055.3,286047000.5,N,1.2
1502827075.1,286047000.6,N,1.2
1502827095.9,286047001.0,N,1.2
1502827115.7,286047001.1,N,1.2
1502827135.6,286047000.7,N,1.1
1502827155.4,286047001.1,N,1.1
1502827175.2,286047001.1,N,1.1
1502827195.1,286047001.1,N,1.1
1502827196.0,286047001.1,N,1.1
